Погода в Вагаторе

Индия     15°35′46″N   73°44′33″E
темп.,
°C
ветер,
м/с
пор.,
м/с
влажн.,
%
обл.,
%
осадки,
мм/ч
давл.,
гПа
погр.,
м
10 мая, пн
пн1023:30+30сз56735 0.0 1007413
02:30+29ссз567369 0.0 1006517
05:30+29с237466 0.0 1007406
08:30+30с34705 0.0 1008699
11:30+30з657045 0.0 1008610
14:30+31зсз776911 0.0 1005518
17:30+31сз55699 0.0 1005751
20:30+30сз567476 0.0 1007691
11 мая, вт
вт1123:30+30ссз447184 0.0 1007658
02:30+30ссз347348 0.0 1006632
05:30+29ссз447490 0.0 1007743
08:30+30ссз347432 0.0 1009672
11:30+31сз44675 0.1 1009825
14:30+31зсз66696 0.0 1006722
17:30+30сз77715 0.0 1005810
20:30+30сз56735 0.0 1007772
12 мая, ср
ср1223:30+30сз56738 0.0 1007752
02:30+29ссз457528 0.0 1006765
05:30+28ссз457748 0.1 1006623
08:30+29ссз447111 0.1 1008701
11:30+30зсз66699 0.1 1007702
14:30+31зсз7767100 0.0 1005782
17:30+30зсз6669100 0.0 1004819
20:30+30сз6770100 0.0 1005817
13 мая, чт
чт1323:30+29сз5571100 0.0 1006810
02:30+29сз4471100 0.0 1005791
05:30+28ссз4573100 0.0 1006740
08:30+29с4470100 0.0 1007704
11:30+30зсз6567100 0.0 1007667
14:30+30зсз766493 0.0 1005645
17:30+30зсз666581 0.0 1004774
20:30+30сз676735 0.0 1005692
14 мая, пт
пт1423:30+29сз566810 0.0 1006710
02:30+29ссз45700 0.0 1004696
05:30+28с45731 0.0 1005514
08:30+29ссз34675 0.0 1007581
11:30+29з65695 0.0 1006565
14:30+30зсз76622 0.0 1004601
17:30+30сз66620 0.0 1003680
20:30+30сз56670 0.0 1004666